Monarch Pass, CO

8:51 PM MDT on July 27, 2017 (GMT -0600)
Monarch Pass

Weather History for KMYP - November, 2013

Change the Weather History Date:

Wednesday, November 13, 2013

  Actual Average (KALS) Record (KALS)
Temperature  
Mean Temperature 30 °F -  
Max Temperature 35 °F 48 °F 63 °F (1973)
Min Temperature 24 °F 14 °F -12 °F (1940)
Degree Days  
Heating Degree Days 34    
Moisture  
Dew Point 11 °F    
Average Humidity 46    
Maximum Humidity 64    
Minimum Humidity 34    
Precipitation  
Precipitation 0.00 in - - ()
Sea Level Pressure  
Sea Level Pressure 30.57 in    
Wind  
Wind Speed 22 mph (WSW)    
Max Wind Speed 31 mph    
Max Gust Speed 39 mph    
Visibility 10 miles    
Events      
Averages and records for this station are not official NWS values.
T = Trace of Precipitation, MM = Missing Value Source: NWS Daily Summary

Daily Weather History Graph

Daily Weather History Graph

Search for Another Location

Airport or City:

Trip Planner

Search our weather history database for the weather conditions in past years. The results will help you decide how hot, cold, wet, or windy it might be!

Date:

Astronomy

Nov. 13, 2013 Rise Set
Actual Time 6:44 AM MST 4:53 PM MST
Civil Twilight 6:16 AM MST 5:21 PM MST
Nautical Twilight 5:44 AM MST 5:53 PM MST
Astronomical Twilight 5:13 AM MST 6:24 PM MST
Moon 2:39 PM MST (11/13) 2:43 AM MST (11/13)
Length of Visible Light 11h 05m
Length of Day
10h 09m
Waxing Gibbous, 85% of the Moon is Illuminated
Nov 13
Waxing Gibbous
Nov 17
Full
Nov 25
Last Quarter
Dec 2
New
Dec 9
First Quarter

Hourly Weather History & Observations

Time (MST) Temp. Windchill Dew Point Humidity Pressure Visibility Wind Dir Wind Speed Gust Speed Precip Events Conditions
12:16 AM 28.4 °F 15.1 °F 6.8 °F 40% 30.74 in 10.0 mi SW 20.7 mph - N/A   Clear
12:36 AM 30.2 °F 16.8 °F 5.0 °F 34% 30.74 in 10.0 mi WSW 23.0 mph - N/A   Clear
12:56 AM 28.4 °F 14.7 °F 5.0 °F 37% 30.74 in 10.0 mi WSW 21.9 mph - N/A   Clear
1:16 AM 28.4 °F 14.4 °F 5.0 °F 37% 30.73 in 10.0 mi WSW 23.0 mph - N/A   Clear
1:36 AM 28.4 °F 14.4 °F 5.0 °F 37% 30.72 in 10.0 mi WSW 23.0 mph - N/A   Clear
1:56 AM 28.4 °F - 6.8 °F 40% 30.72 in 10.0 mi North - - N/A   Clear
2:16 AM 28.4 °F 14.4 °F 6.8 °F 40% 30.72 in 10.0 mi WSW 23.0 mph - N/A   Clear
2:36 AM 28.4 °F 14.1 °F 8.6 °F 43% 30.71 in 10.0 mi WSW 24.2 mph - N/A   Clear
2:56 AM 28.4 °F 13.8 °F 8.6 °F 43% 30.70 in 10.0 mi WSW 25.3 mph - N/A   Clear
3:16 AM 26.6 °F 12.0 °F 8.6 °F 47% 30.70 in 10.0 mi WSW 23.0 mph - N/A   Clear
3:36 AM 26.6 °F - 8.6 °F 47% 30.69 in 10.0 mi North - - N/A   Clear
3:56 AM 26.6 °F - 8.6 °F 47% 30.69 in 10.0 mi North - - N/A   Clear
4:16 AM 26.6 °F 11.7 °F 8.6 °F 47% 30.68 in 10.0 mi West 24.2 mph - N/A   Clear
4:36 AM 26.6 °F 12.0 °F 8.6 °F 47% 30.68 in 10.0 mi West 23.0 mph - N/A   Clear
4:56 AM 26.6 °F 12.4 °F 8.6 °F 47% 30.68 in 10.0 mi West 21.9 mph - N/A   Clear
5:16 AM 26.6 °F - 8.6 °F 47% 30.67 in 10.0 mi North - - N/A   Clear
5:36 AM 26.6 °F - 8.6 °F 47% 30.67 in 10.0 mi North - - N/A   Clear
5:56 AM 26.6 °F 11.7 °F 8.6 °F 47% 30.66 in 10.0 mi West 24.2 mph - N/A   Clear
6:16 AM 26.6 °F 12.0 °F 8.6 °F 47% 30.66 in 10.0 mi West 23.0 mph - N/A   Clear
6:36 AM 26.6 °F 12.0 °F 8.6 °F 47% 30.66 in 10.0 mi West 23.0 mph - N/A   Clear
6:56 AM 26.6 °F 11.1 °F 8.6 °F 47% 30.65 in 10.0 mi West 26.5 mph - N/A   Clear
7:16 AM 26.6 °F 12.4 °F 8.6 °F 47% 30.65 in 10.0 mi West 21.9 mph - N/A   Clear
7:36 AM 26.6 °F 12.0 °F 8.6 °F 47% 30.65 in 10.0 mi West 23.0 mph - N/A   Clear
7:56 AM 26.6 °F 11.7 °F 8.6 °F 47% 30.65 in 10.0 mi West 24.2 mph - N/A   Clear
8:16 AM 26.6 °F 12.4 °F 8.6 °F 47% 30.65 in 10.0 mi West 21.9 mph - N/A   Clear
8:36 AM 28.4 °F 15.8 °F 8.6 °F 43% 30.66 in 10.0 mi WSW 18.4 mph 25.3 mph N/A   Clear
8:56 AM 28.4 °F 15.8 °F 10.4 °F 47% 30.65 in 10.0 mi WSW 18.4 mph 25.3 mph N/A   Clear
9:16 AM 28.4 °F 16.2 °F 10.4 °F 47% 30.65 in 10.0 mi WSW 17.3 mph - N/A   Clear
9:36 AM 30.2 °F 17.8 °F 10.4 °F 44% 30.64 in 10.0 mi WSW 19.6 mph 24.2 mph N/A   Clear
9:56 AM 30.2 °F 19.3 °F 10.4 °F 44% 30.64 in 10.0 mi WSW 15.0 mph 24.2 mph N/A   Clear
10:16 AM 32.0 °F 20.8 °F 10.4 °F 41% 30.63 in 10.0 mi WSW 17.3 mph 24.2 mph N/A   Clear
10:36 AM 32.0 °F 20.1 °F 10.4 °F 41% 30.62 in 10.0 mi SW 19.6 mph 25.3 mph N/A   Clear
10:56 AM 32.0 °F 19.8 °F 12.2 °F 44% 30.61 in 10.0 mi WSW 20.7 mph 26.5 mph N/A   Clear
11:16 AM 32.0 °F 19.8 °F 12.2 °F 44% 30.60 in 10.0 mi WSW 20.7 mph 26.5 mph N/A   Clear
11:36 AM 32.0 °F 19.5 °F 12.2 °F 44% 30.59 in 10.0 mi West 21.9 mph 28.8 mph N/A   Clear
11:56 AM 33.8 °F 21.9 °F 12.2 °F 41% 30.58 in 10.0 mi SW 21.9 mph 34.5 mph N/A   Clear
12:16 PM 33.8 °F 22.5 °F 12.2 °F 41% 30.57 in 10.0 mi WSW 19.6 mph 31.1 mph N/A   Clear
12:36 PM 33.8 °F 22.5 °F 12.2 °F 41% 30.56 in 10.0 mi West 19.6 mph 32.2 mph N/A   Clear
12:56 PM 33.8 °F 20.3 °F 12.2 °F 41% 30.55 in 10.0 mi West 28.8 mph 34.5 mph N/A   Clear
1:16 PM 32.0 °F 18.4 °F 12.2 °F 44% 30.54 in 10.0 mi West 26.5 mph 33.4 mph N/A   Clear
1:36 PM 32.0 °F 17.4 °F 12.2 °F 44% 30.53 in 10.0 mi West 31.1 mph 39.1 mph N/A   Clear
1:56 PM 32.0 °F 17.9 °F 12.2 °F 44% 30.53 in 10.0 mi West 28.8 mph 34.5 mph N/A   Clear
2:16 PM 32.0 °F 19.8 °F 12.2 °F 44% 30.53 in 10.0 mi West 20.7 mph 24.2 mph N/A   Clear
2:36 PM 35.6 °F 23.2 °F 12.2 °F 38% 30.51 in 10.0 mi West 26.5 mph 32.2 mph N/A   Clear
2:56 PM 33.8 °F 21.6 °F 12.2 °F 41% 30.51 in 10.0 mi West 23.0 mph 32.2 mph N/A   Clear
3:16 PM 32.0 °F 22.1 °F 12.2 °F 44% 30.51 in 10.0 mi SW 13.8 mph 27.6 mph N/A   Clear
3:36 PM 32.0 °F 18.9 °F 12.2 °F 44% 30.51 in 10.0 mi West 24.2 mph 28.8 mph N/A   Clear
3:56 PM 32.0 °F 18.6 °F 14.0 °F 48% 30.50 in 10.0 mi West 25.3 mph 29.9 mph N/A   Clear
4:16 PM 32.0 °F 18.6 °F 14.0 °F 48% 30.50 in 10.0 mi West 25.3 mph 29.9 mph N/A   Clear
4:36 PM 32.0 °F 20.1 °F 12.2 °F 44% 30.49 in 10.0 mi West 19.6 mph - N/A   Clear
4:56 PM 32.0 °F 20.1 °F 12.2 °F 44% 30.49 in 10.0 mi West 19.6 mph - N/A   Clear
5:16 PM 30.2 °F 17.4 °F 12.2 °F 47% 30.48 in 10.0 mi West 20.7 mph - N/A   Clear
5:36 PM 30.2 °F - 14.0 °F 51% 30.49 in 10.0 mi North - - N/A   Clear
5:56 PM 30.2 °F - 12.2 °F 47% 30.48 in 10.0 mi North - - N/A   Clear
6:16 PM 30.2 °F - 12.2 °F 47% 30.48 in 10.0 mi North - - N/A   Scattered Clouds
6:36 PM 30.2 °F - 12.2 °F 47% 30.47 in 10.0 mi North - - N/A   Mostly Cloudy
6:56 PM 30.2 °F - 12.2 °F 47% 30.46 in 10.0 mi North - - N/A   Overcast
7:16 PM 30.2 °F - 12.2 °F 47% 30.45 in 10.0 mi North - - N/A   Overcast
7:36 PM 30.2 °F - 12.2 °F 47% 30.45 in 10.0 mi North - - N/A   Overcast
7:56 PM 30.2 °F - 12.2 °F 47% 30.44 in 10.0 mi North - - N/A   Overcast
8:16 PM 30.2 °F - 12.2 °F 47% 30.44 in 10.0 mi North - - N/A   Overcast
8:36 PM 28.4 °F - 12.2 °F 51% 30.43 in 10.0 mi North - - N/A   Overcast
8:56 PM 28.4 °F - 12.2 °F 51% 30.42 in 10.0 mi North - - N/A   Overcast
9:16 PM 28.4 °F - 12.2 °F 51% 30.41 in 10.0 mi North - - N/A   Scattered Clouds
9:36 PM 28.4 °F - 12.2 °F 51% 30.40 in 10.0 mi North - - N/A   Clear
9:56 PM 28.4 °F 14.7 °F 12.2 °F 51% 30.40 in 10.0 mi WSW 21.9 mph - N/A   Clear
10:16 PM 26.6 °F 12.4 °F 12.2 °F 55% 30.39 in 10.0 mi West 21.9 mph - N/A   Scattered Clouds
10:36 PM 26.6 °F - 12.2 °F 55% 30.38 in 10.0 mi North - - N/A   Scattered Clouds
10:56 PM 26.6 °F - 14.0 °F 59% 30.37 in 10.0 mi North - - N/A   Mostly Cloudy
11:16 PM 26.6 °F - 12.2 °F 55% 30.37 in 10.0 mi North - - N/A   Mostly Cloudy
11:36 PM 26.6 °F - 12.2 °F 55% 30.36 in 10.0 mi North - - N/A   Overcast
11:56 PM 24.8 °F - 14.0 °F 64% 30.36 in 10.0 mi North - - N/A   Overcast